indice_tiempo,datasets_cant,datasets_federados_cant,datasets_no_federados_cant,datasets_federados_pct,datasets_meta_ok_cant,datasets_meta_error_cant,datasets_meta_ok_pct,distribuciones_cant,distribuciones_federadas_cant,campos_recomendados_pct,campos_optativos_pct,datasets_con_datos_pct,datasets_sin_datos_cant,datasets_con_datos_cant,distribuciones_download_url_ok_cant,distribuciones_download_url_error_cant,distribuciones_download_url_ok_pct
2017-09-13,50.0,0.0,50.0,0.0,1.0,49.0,0.02,98.0,,0.5778,0.2984,,,,,,
2017-09-14,50.0,0.0,50.0,0.0,1.0,49.0,0.02,98.0,,0.5778,0.2984,,,,,,
2017-09-15,50.0,0.0,50.0,0.0,1.0,49.0,0.02,98.0,,0.5778,0.2984,,,,,,
2017-09-16,50.0,0.0,50.0,0.0,1.0,49.0,0.02,98.0,,0.5778,0.2984,,,,,,
2017-09-17,50.0,0.0,50.0,0.0,1.0,49.0,0.02,98.0,,0.5778,0.2984,,,,,,
2017-09-18,50.0,0.0,50.0,0.0,1.0,49.0,0.02,98.0,,0.5778,0.2984,,,,,,
2017-09-19,50.0,0.0,50.0,0.0,1.0,49.0,0.02,98.0,,0.5778,0.2984,,,,,,
2017-09-20,50.0,0.0,50.0,0.0,1.0,49.0,0.02,98.0,,0.5778,0.2984,,,,,,
2017-09-21,50.0,0.0,50.0,0.0,1.0,49.0,0.02,98.0,,0.5778,0.2984,,,,,,
2017-09-22,50.0,0.0,50.0,0.0,1.0,49.0,0.02,98.0,,0.5778,0.2984,,,,,,
2017-09-23,50.0,0.0,50.0,0.0,1.0,49.0,0.02,98.0,,0.5778,0.2984,,,,,,
2017-09-24,50.0,0.0,50.0,0.0,1.0,49.0,0.02,98.0,,0.5778,0.2984,,,,,,
2017-09-25,50.0,0.0,50.0,0.0,1.0,49.0,0.02,98.0,,0.5778,0.2984,,,,,,
2017-09-26,50.0,0.0,50.0,0.0,1.0,49.0,0.02,98.0,,0.5778,0.2984,,,,,,
2017-09-27,50.0,0.0,50.0,0.0,1.0,49.0,0.02,98.0,,0.5778,0.2984,,,,,,
2017-09-28,50.0,0.0,50.0,0.0,1.0,49.0,0.02,98.0,,0.5778,0.2984,,,,,,
2017-09-29,50.0,0.0,50.0,0.0,1.0,49.0,0.02,98.0,,0.5778,0.2984,,,,,,
2017-09-30,50.0,0.0,50.0,0.0,16.0,34.0,0.32,98.0,,0.5916,0.2984,,,,,,
2017-10-01,50.0,0.0,50.0,0.0,16.0,34.0,0.32,98.0,,0.5916,0.2984,,,,,,
2017-10-02,50.0,0.0,50.0,0.0,16.0,34.0,0.32,98.0,,0.5916,0.2984,,,,,,
2017-10-03,50.0,0.0,50.0,0.0,49.0,1.0,0.98,98.0,,0.5916,0.2984,,,,,,
2017-10-04,50.0,0.0,50.0,0.0,49.0,1.0,0.98,98.0,,0.5916,0.2984,,,,,,
2017-10-05,50.0,0.0,50.0,0.0,49.0,1.0,0.98,98.0,,0.5916,0.2984,,,,,,
2017-10-06,50.0,0.0,50.0,0.0,49.0,1.0,0.98,98.0,,0.5916,0.2984,,,,,,
2017-10-07,51.0,0.0,51.0,0.0,51.0,0.0,1.0,99.0,,0.5917,0.3002,,,,,,
2017-10-08,51.0,0.0,51.0,0.0,51.0,0.0,1.0,99.0,,0.5917,0.3002,,,,,,
2017-10-09,51.0,0.0,51.0,0.0,51.0,0.0,1.0,99.0,,0.5917,0.3002,,,,,,
2017-10-10,51.0,0.0,51.0,0.0,51.0,0.0,1.0,99.0,,0.5917,0.3002,,,,,,
2017-10-11,52.0,0.0,52.0,0.0,51.0,1.0,0.9807692307692308,100.0,,0.5909,0.302,,,,,,
2017-10-12,52.0,0.0,52.0,0.0,51.0,1.0,0.9807692307692308,100.0,,0.5909,0.302,,,,,,
2017-10-13,52.0,0.0,52.0,0.0,51.0,1.0,0.9807692307692308,100.0,,0.5909,0.302,,,,,,
2017-10-14,52.0,0.0,52.0,0.0,51.0,1.0,0.9807692307692308,100.0,,0.5909,0.302,,,,,,
2017-10-15,52.0,0.0,52.0,0.0,51.0,1.0,0.9807692307692308,100.0,,0.5909,0.302,,,,,,
2017-10-16,52.0,0.0,52.0,0.0,51.0,1.0,0.9807692307692308,100.0,,0.5909,0.302,,,,,,
2017-10-17,52.0,0.0,52.0,0.0,51.0,1.0,0.9807692307692308,100.0,,0.5909,0.302,,,,,,
2017-10-18,52.0,0.0,52.0,0.0,51.0,1.0,0.9807692307692308,100.0,,0.5909,0.302,,,,,,
2017-10-19,52.0,0.0,52.0,0.0,51.0,1.0,0.9807692307692308,100.0,,0.5909,0.302,,,,,,
2017-10-20,52.0,0.0,52.0,0.0,51.0,1.0,0.9807692307692308,100.0,,0.5909,0.302,,,,,,
2017-10-21,52.0,0.0,52.0,0.0,51.0,1.0,0.9807692307692308,100.0,,0.5909,0.302,,,,,,
2017-10-22,52.0,0.0,52.0,0.0,51.0,1.0,0.9807692307692308,100.0,,0.5909,0.302,,,,,,
2017-10-23,52.0,0.0,52.0,0.0,51.0,1.0,0.9807692307692308,100.0,,0.5909,0.302,,,,,,
2017-10-24,52.0,0.0,52.0,0.0,51.0,1.0,0.9807692307692308,100.0,,0.5909,0.302,,,,,,
2017-10-25,52.0,0.0,52.0,0.0,51.0,1.0,0.9807692307692308,100.0,,0.5909,0.302,,,,,,
2017-10-26,52.0,0.0,52.0,0.0,51.0,1.0,0.9807692307692308,100.0,,0.5909,0.302,,,,,,
2017-10-27,52.0,0.0,52.0,0.0,51.0,1.0,0.9807692307692308,100.0,,0.5909,0.302,,,,,,
2017-10-28,52.0,48.0,4.0,0.9230769230769232,51.0,1.0,0.9807692307692308,100.0,,0.5909,0.302,,,,,,
2017-10-29,52.0,48.0,4.0,0.9230769230769232,51.0,1.0,0.9807692307692308,100.0,,0.5909,0.302,,,,,,
2017-10-30,52.0,48.0,4.0,0.9230769230769232,51.0,1.0,0.9807692307692308,100.0,,0.5909,0.302,,,,,,
2017-10-31,52.0,48.0,4.0,0.9230769230769232,51.0,1.0,0.9807692307692308,100.0,,0.5909,0.302,,,,,,
2017-11-01,52.0,48.0,4.0,0.9230769230769232,51.0,1.0,0.9807692307692308,100.0,,0.5909,0.302,,,,,,
2017-11-02,53.0,48.0,5.0,0.9056603773584906,52.0,1.0,0.981132075471698,101.0,,0.5893,0.3037,,,,,,
2017-11-03,56.0,48.0,8.0,0.8571428571428571,54.0,2.0,0.9642857142857144,116.0,,0.5893,0.2875,,,,,,
2017-11-04,56.0,48.0,8.0,0.8571428571428571,54.0,2.0,0.9642857142857144,116.0,,0.5893,0.2875,,,,,,
2017-11-05,56.0,48.0,8.0,0.8571428571428571,54.0,2.0,0.9642857142857144,116.0,,0.5893,0.2875,,,,,,
2017-11-06,56.0,48.0,8.0,0.8571428571428571,54.0,2.0,0.9642857142857144,116.0,,0.5893,0.2875,,,,,,
2017-11-07,56.0,48.0,8.0,0.8571428571428571,54.0,2.0,0.9642857142857144,116.0,,0.5893,0.2875,,,,,,
2017-11-08,57.0,48.0,9.0,0.8421052631578947,55.0,2.0,0.9649122807017544,117.0,,0.5878,0.2892,,,,,,
2017-11-09,57.0,48.0,9.0,0.8421052631578947,55.0,2.0,0.9649122807017544,117.0,,0.5878,0.2892,,,,,,
2017-11-10,57.0,48.0,9.0,0.8421052631578947,55.0,2.0,0.9649122807017544,117.0,,0.5878,0.2892,,,,,,
2017-11-11,57.0,48.0,9.0,0.8421052631578947,57.0,0.0,1.0,117.0,,0.5878,0.2892,,,,,,
2017-11-12,57.0,48.0,9.0,0.8421052631578947,57.0,0.0,1.0,117.0,,0.5878,0.2892,,,,,,
2017-11-13,57.0,48.0,9.0,0.8421052631578947,57.0,0.0,1.0,117.0,,0.5878,0.2892,,,,,,
2017-11-14,57.0,48.0,9.0,0.8421052631578947,57.0,0.0,1.0,117.0,,0.5878,0.2892,,,,,,
2017-11-15,57.0,48.0,9.0,0.8421052631578947,57.0,0.0,1.0,117.0,,0.5878,0.2892,,,,,,
2017-11-16,57.0,48.0,9.0,0.8421052631578947,57.0,0.0,1.0,117.0,,0.5878,0.2892,,,,,,
2017-11-17,57.0,48.0,9.0,0.8421052631578947,57.0,0.0,1.0,117.0,,0.5878,0.2892,,,,,,
2017-11-18,57.0,48.0,9.0,0.8421052631578947,57.0,0.0,1.0,117.0,,0.5878,0.2892,,,,,,
2017-11-19,57.0,48.0,9.0,0.8421052631578947,57.0,0.0,1.0,117.0,,0.5878,0.2892,,,,,,
2017-11-20,57.0,48.0,9.0,0.8421052631578947,57.0,0.0,1.0,117.0,,0.5878,0.2892,,,,,,
2017-11-21,57.0,48.0,9.0,0.8421052631578947,57.0,0.0,1.0,117.0,,0.5878,0.2892,,,,,,
2017-11-22,57.0,48.0,9.0,0.8421052631578947,57.0,0.0,1.0,117.0,,0.5878,0.2892,,,,,,
2017-11-23,57.0,48.0,9.0,0.8421052631578947,57.0,0.0,1.0,117.0,,0.5878,0.2892,,,,,,
2017-11-24,57.0,48.0,9.0,0.8421052631578947,57.0,0.0,1.0,117.0,,0.5878,0.2892,,,,,,
2017-11-25,57.0,48.0,9.0,0.8421052631578947,57.0,0.0,1.0,117.0,,0.5878,0.2892,,,,,,
2017-11-26,57.0,48.0,9.0,0.8421052631578947,57.0,0.0,1.0,117.0,,0.5878,0.2892,,,,,,
2017-11-27,57.0,48.0,9.0,0.8421052631578947,57.0,0.0,1.0,117.0,,0.5878,0.2892,,,,,,
2017-11-28,57.0,48.0,9.0,0.8421052631578947,57.0,0.0,1.0,117.0,,0.5878,0.2892,,,,,,
2017-11-29,57.0,48.0,9.0,0.8421052631578947,57.0,0.0,1.0,117.0,,0.5878,0.2892,,,,,,
2017-11-30,57.0,48.0,9.0,0.8421052631578947,57.0,0.0,1.0,117.0,,0.5878,0.2892,,,,,,
2017-12-01,57.0,48.0,9.0,0.8421052631578947,57.0,0.0,1.0,117.0,,0.5878,0.2892,,,,,,
2017-12-02,57.0,48.0,9.0,0.8421052631578947,57.0,0.0,1.0,117.0,,0.5878,0.2892,,,,,,
2017-12-03,57.0,48.0,9.0,0.8421052631578947,57.0,0.0,1.0,117.0,,0.5878,0.2892,,,,,,
2017-12-04,57.0,48.0,9.0,0.8421052631578947,57.0,0.0,1.0,117.0,,0.5878,0.2892,,,,,,
2017-12-05,57.0,48.0,9.0,0.8421052631578947,57.0,0.0,1.0,117.0,,0.5878,0.2892,,,,,,
2017-12-06,57.0,48.0,9.0,0.8421052631578947,57.0,0.0,1.0,117.0,,0.5878,0.2892,,,,,,
2017-12-07,57.0,48.0,9.0,0.8421052631578947,57.0,0.0,1.0,117.0,,0.5878,0.2892,,,,,,
2017-12-08,57.0,50.0,7.0,0.8771929824561403,57.0,0.0,1.0,117.0,,0.5878,0.2892,,,,,,
2017-12-09,57.0,50.0,7.0,0.8771929824561403,57.0,0.0,1.0,117.0,,0.5878,0.2892,,,,,,
2017-12-10,57.0,50.0,7.0,0.8771929824561403,57.0,0.0,1.0,117.0,,0.5878,0.2892,,,,,,
2017-12-11,57.0,50.0,7.0,0.8771929824561403,57.0,0.0,1.0,117.0,,0.5878,0.2892,,,,,,
2017-12-12,57.0,50.0,7.0,0.8771929824561403,57.0,0.0,1.0,117.0,,0.5878,0.2892,,,,,,
2017-12-13,57.0,50.0,7.0,0.8771929824561403,57.0,0.0,1.0,117.0,,0.5878,0.2892,,,,,,
2017-12-14,57.0,50.0,7.0,0.8771929824561403,57.0,0.0,1.0,115.0,,0.588,0.2922,,,,,,
2017-12-15,57.0,50.0,7.0,0.8771929824561403,57.0,0.0,1.0,115.0,,0.588,0.2922,,,,,,
2017-12-16,57.0,50.0,7.0,0.8771929824561403,57.0,0.0,1.0,115.0,,0.588,0.2922,,,,,,
2017-12-17,57.0,50.0,7.0,0.8771929824561403,57.0,0.0,1.0,115.0,,0.588,0.2922,,,,,,
2017-12-18,57.0,50.0,7.0,0.8771929824561403,57.0,0.0,1.0,115.0,,0.588,0.2922,,,,,,
2017-12-19,57.0,50.0,7.0,0.8771929824561403,57.0,0.0,1.0,115.0,,0.588,0.2922,,,,,,
2017-12-20,57.0,50.0,7.0,0.8771929824561403,57.0,0.0,1.0,115.0,,0.588,0.2922,,,,,,
2017-12-21,57.0,50.0,7.0,0.8771929824561403,57.0,0.0,1.0,115.0,,0.588,0.2922,,,,,,
2017-12-22,57.0,50.0,7.0,0.8771929824561403,57.0,0.0,1.0,115.0,,0.588,0.2922,,,,,,
2017-12-23,57.0,50.0,7.0,0.8771929824561403,57.0,0.0,1.0,115.0,,0.588,0.2922,,,,,,
2017-12-24,57.0,50.0,7.0,0.8771929824561403,57.0,0.0,1.0,115.0,,0.588,0.2922,,,,,,
2017-12-25,57.0,50.0,7.0,0.8771929824561403,57.0,0.0,1.0,115.0,,0.588,0.2922,,,,,,
2017-12-26,57.0,50.0,7.0,0.8771929824561403,57.0,0.0,1.0,115.0,,0.588,0.2922,,,,,,
2017-12-27,57.0,50.0,7.0,0.8771929824561403,57.0,0.0,1.0,115.0,,0.588,0.2922,,,,,,
2017-12-28,57.0,50.0,7.0,0.8771929824561403,57.0,0.0,1.0,115.0,,0.588,0.2922,,,,,,
2017-12-29,57.0,50.0,7.0,0.8771929824561403,57.0,0.0,1.0,115.0,,0.588,0.2922,,,,,,
2017-12-30,57.0,50.0,7.0,0.8771929824561403,57.0,0.0,1.0,115.0,,0.588,0.2922,,,,,,
2017-12-31,57.0,50.0,7.0,0.8771929824561403,57.0,0.0,1.0,115.0,,0.588,0.2922,,,,,,
2018-01-01,57.0,50.0,7.0,0.8771929824561403,57.0,0.0,1.0,115.0,,0.588,0.2922,,,,,,
2018-01-02,57.0,50.0,7.0,0.8771929824561403,57.0,0.0,1.0,115.0,,0.588,0.2922,,,,,,
2018-01-03,57.0,50.0,7.0,0.8771929824561403,57.0,0.0,1.0,115.0,,0.588,0.2922,,,,,,
2018-01-04,57.0,50.0,7.0,0.8771929824561403,57.0,0.0,1.0,115.0,,0.588,0.2922,,,,,,
2018-01-05,57.0,50.0,7.0,0.8771929824561403,57.0,0.0,1.0,115.0,,0.588,0.2922,,,,,,
2018-01-06,57.0,50.0,7.0,0.8771929824561403,57.0,0.0,1.0,115.0,,0.588,0.2922,,,,,,
2018-01-07,57.0,50.0,7.0,0.8771929824561403,57.0,0.0,1.0,115.0,,0.588,0.2922,,,,,,
2018-01-08,57.0,50.0,7.0,0.8771929824561403,57.0,0.0,1.0,115.0,,0.588,0.2922,,,,,,
2018-01-09,57.0,50.0,7.0,0.8771929824561403,57.0,0.0,1.0,115.0,,0.588,0.2922,,,,,,
2018-01-10,57.0,50.0,7.0,0.8771929824561403,57.0,0.0,1.0,119.0,,0.5876,0.2862,,,,,,
2018-01-11,57.0,50.0,7.0,0.8771929824561403,57.0,0.0,1.0,119.0,,0.5876,0.2862,,,,,,
2018-01-12,57.0,50.0,7.0,0.8771929824561403,57.0,0.0,1.0,119.0,,0.5876,0.2862,,,,,,
2018-01-13,57.0,50.0,7.0,0.8771929824561403,57.0,0.0,1.0,119.0,,0.5876,0.2862,,,,,,
2018-01-14,57.0,50.0,7.0,0.8771929824561403,57.0,0.0,1.0,119.0,,0.5876,0.2862,,,,,,
2018-01-15,57.0,50.0,7.0,0.8771929824561403,57.0,0.0,1.0,119.0,,0.5876,0.2862,,,,,,
2018-01-16,57.0,50.0,7.0,0.8771929824561403,57.0,0.0,1.0,119.0,,0.5876,0.2862,,,,,,
2018-01-17,57.0,50.0,7.0,0.8771929824561403,57.0,0.0,1.0,119.0,,0.5876,0.2862,,,,,,
2018-01-18,57.0,50.0,7.0,0.8771929824561403,57.0,0.0,1.0,119.0,,0.5876,0.2862,,,,,,
2018-01-19,57.0,50.0,7.0,0.8771929824561403,57.0,0.0,1.0,119.0,,0.5876,0.2862,,,,,,
2018-01-20,57.0,50.0,7.0,0.8771929824561403,57.0,0.0,1.0,119.0,,0.5876,0.2862,,,,,,
2018-01-21,57.0,50.0,7.0,0.8771929824561403,57.0,0.0,1.0,119.0,,0.5876,0.2862,,,,,,
2018-01-22,57.0,50.0,7.0,0.8771929824561403,57.0,0.0,1.0,119.0,,0.5876,0.2862,,,,,,
2018-01-23,57.0,50.0,7.0,0.8771929824561403,57.0,0.0,1.0,119.0,,0.5876,0.2862,,,,,,
2018-01-24,57.0,50.0,7.0,0.8771929824561403,57.0,0.0,1.0,119.0,,0.5876,0.2862,,,,,,
2018-01-25,57.0,50.0,7.0,0.8771929824561403,57.0,0.0,1.0,119.0,,0.5876,0.2862,,,,,,
2018-01-26,57.0,50.0,7.0,0.8771929824561403,57.0,0.0,1.0,119.0,,0.5876,0.2862,,,,,,
2018-01-27,57.0,50.0,7.0,0.8771929824561403,57.0,0.0,1.0,119.0,,0.5876,0.2862,,,,,,
2018-01-28,57.0,50.0,7.0,0.8771929824561403,57.0,0.0,1.0,119.0,,0.5876,0.2862,,,,,,
2018-01-29,57.0,50.0,7.0,0.8771929824561403,57.0,0.0,1.0,119.0,,0.5876,0.2862,,,,,,
2018-01-30,57.0,50.0,7.0,0.8771929824561403,57.0,0.0,1.0,119.0,,0.5876,0.2862,,,,,,
2018-01-31,57.0,50.0,7.0,0.8771929824561403,57.0,0.0,1.0,119.0,,0.5876,0.2862,,,,,,
2018-02-01,57.0,50.0,7.0,0.8771929824561403,57.0,0.0,1.0,119.0,,0.5876,0.2862,,,,,,
2018-02-02,57.0,50.0,7.0,0.8771929824561403,57.0,0.0,1.0,119.0,,0.5876,0.2862,,,,,,
2018-02-03,57.0,50.0,7.0,0.8771929824561403,57.0,0.0,1.0,119.0,,0.5876,0.2862,,,,,,
2018-02-04,57.0,50.0,7.0,0.8771929824561403,57.0,0.0,1.0,119.0,,0.5876,0.2862,,,,,,
2018-02-05,57.0,50.0,7.0,0.8771929824561403,57.0,0.0,1.0,119.0,,0.5876,0.2862,,,,,,
2018-02-06,57.0,50.0,7.0,0.8771929824561403,57.0,0.0,1.0,119.0,,0.5876,0.2862,,,,,,
2018-02-07,57.0,50.0,7.0,0.8771929824561403,57.0,0.0,1.0,119.0,,0.5876,0.2862,,,,,,
2018-02-08,57.0,50.0,7.0,0.8771929824561403,57.0,0.0,1.0,119.0,,0.5876,0.2862,,,,,,
2018-02-09,57.0,50.0,7.0,0.8771929824561403,57.0,0.0,1.0,119.0,,0.5876,0.2862,,,,,,
2018-02-10,57.0,50.0,7.0,0.8771929824561403,57.0,0.0,1.0,119.0,,0.5876,0.2862,,,,,,
2018-02-11,57.0,50.0,7.0,0.8771929824561403,57.0,0.0,1.0,119.0,,0.5876,0.2862,,,,,,
2018-02-12,57.0,50.0,7.0,0.8771929824561403,57.0,0.0,1.0,119.0,,0.5876,0.2862,,,,,,
2018-02-13,57.0,50.0,7.0,0.8771929824561403,57.0,0.0,1.0,119.0,,0.5876,0.2862,,,,,,
2018-02-14,57.0,50.0,7.0,0.8771929824561403,57.0,0.0,1.0,119.0,,0.5876,0.2862,,,,,,
2018-02-15,57.0,50.0,7.0,0.8771929824561403,57.0,0.0,1.0,119.0,,0.5876,0.2862,,,,,,
2018-02-16,57.0,50.0,7.0,0.8771929824561403,57.0,0.0,1.0,119.0,,0.5876,0.2862,,,,,,
2018-02-17,57.0,50.0,7.0,0.8771929824561403,57.0,0.0,1.0,119.0,,0.5876,0.2862,,,,,,
2018-02-18,57.0,50.0,7.0,0.8771929824561403,57.0,0.0,1.0,119.0,,0.5876,0.2862,,,,,,
2018-02-19,57.0,50.0,7.0,0.8771929824561403,57.0,0.0,1.0,119.0,,0.5876,0.2862,,,,,,
2018-02-20,57.0,50.0,7.0,0.8771929824561403,57.0,0.0,1.0,119.0,,0.5876,0.2862,,,,,,
2018-02-21,57.0,50.0,7.0,0.8771929824561403,57.0,0.0,1.0,119.0,,0.5876,0.2862,,,,,,
2018-02-22,57.0,50.0,7.0,0.8771929824561403,57.0,0.0,1.0,119.0,,0.5876,0.2862,,,,,,
2018-02-23,57.0,50.0,7.0,0.8771929824561403,57.0,0.0,1.0,119.0,,0.5876,0.2862,,,,,,
2018-02-24,57.0,50.0,7.0,0.8771929824561403,57.0,0.0,1.0,119.0,,0.5876,0.2862,,,,,,
2018-02-25,57.0,50.0,7.0,0.8771929824561403,57.0,0.0,1.0,119.0,,0.5876,0.2862,,,,,,
2018-02-26,57.0,50.0,7.0,0.8771929824561403,57.0,0.0,1.0,119.0,,0.5876,0.2862,,,,,,
2018-02-27,57.0,50.0,7.0,0.8771929824561403,57.0,0.0,1.0,119.0,,0.5876,0.2862,,,,,,
2018-02-28,57.0,50.0,7.0,0.8771929824561403,57.0,0.0,1.0,119.0,,0.5876,0.2862,,,,,,
2018-03-01,57.0,50.0,7.0,0.8771929824561403,57.0,0.0,1.0,119.0,,0.5876,0.2862,,,,,,
2018-03-02,57.0,50.0,7.0,0.8771929824561403,57.0,0.0,1.0,119.0,,0.5876,0.2862,,,,,,
2018-03-03,57.0,50.0,7.0,0.8771929824561403,57.0,0.0,1.0,119.0,,0.5876,0.2862,,,,,,
2018-03-04,57.0,51.0,6.0,0.8947368421052632,57.0,0.0,1.0,119.0,,0.5876,0.2862,,,,,,
2018-03-05,57.0,51.0,6.0,0.8947368421052632,57.0,0.0,1.0,119.0,,0.5876,0.2862,,,,,,
2018-03-06,57.0,51.0,6.0,0.8947368421052632,57.0,0.0,1.0,119.0,,0.5876,0.2862,,,,,,
2018-03-07,57.0,51.0,6.0,0.8947368421052632,57.0,0.0,1.0,119.0,,0.5876,0.2862,,,,,,
2018-03-08,57.0,51.0,6.0,0.8947368421052632,57.0,0.0,1.0,119.0,,0.5876,0.2862,,,,,,
2018-03-09,57.0,51.0,6.0,0.8947368421052632,57.0,0.0,1.0,119.0,,0.5884,0.2862,,,,,,
2018-03-10,57.0,51.0,6.0,0.8947368421052632,57.0,0.0,1.0,119.0,,0.5884,0.2862,,,,,,
2018-03-11,57.0,51.0,6.0,0.8947368421052632,57.0,0.0,1.0,119.0,,0.5884,0.2862,,,,,,
2018-03-12,57.0,51.0,6.0,0.8947368421052632,57.0,0.0,1.0,119.0,,0.5884,0.2862,,,,,,
2018-03-13,57.0,51.0,6.0,0.8947368421052632,57.0,0.0,1.0,119.0,,0.5884,0.2862,,,,,,
2018-03-14,57.0,51.0,6.0,0.8947368421052632,57.0,0.0,1.0,119.0,,0.5884,0.2862,,,,,,
2018-03-15,57.0,51.0,6.0,0.8947368421052632,57.0,0.0,1.0,119.0,,0.5884,0.2862,,,,,,
2018-03-16,57.0,51.0,6.0,0.8947368421052632,57.0,0.0,1.0,119.0,,0.5884,0.2862,,,,,,
2018-03-17,57.0,51.0,6.0,0.8947368421052632,57.0,0.0,1.0,119.0,,0.5884,0.2862,,,,,,
2018-03-18,57.0,51.0,6.0,0.8947368421052632,57.0,0.0,1.0,119.0,,0.5884,0.2862,,,,,,
2018-03-19,57.0,51.0,6.0,0.8947368421052632,57.0,0.0,1.0,119.0,,0.5884,0.2862,,,,,,
2018-03-20,57.0,51.0,6.0,0.8947368421052632,57.0,0.0,1.0,119.0,,0.5884,0.2862,,,,,,
2018-03-21,56.0,51.0,5.0,0.9107142857142856,56.0,0.0,1.0,117.0,,0.5884,0.28600000000000003,,,,,,
2018-03-22,56.0,51.0,5.0,0.9107142857142856,56.0,0.0,1.0,117.0,,0.5884,0.28600000000000003,,,,,,
2018-03-23,57.0,51.0,6.0,0.8947368421052632,57.0,0.0,1.0,119.0,,0.5884,0.2862,,,,,,
2018-03-24,57.0,51.0,6.0,0.8947368421052632,57.0,0.0,1.0,119.0,,0.5884,0.2862,,,,,,
2018-03-25,57.0,51.0,6.0,0.8947368421052632,57.0,0.0,1.0,119.0,,0.5884,0.2862,,,,,,
2018-03-26,57.0,51.0,6.0,0.8947368421052632,57.0,0.0,1.0,119.0,,0.5884,0.2862,,,,,,
2018-03-27,57.0,51.0,6.0,0.8947368421052632,57.0,0.0,1.0,119.0,,0.5884,0.2862,,,,,,
2018-03-28,57.0,51.0,6.0,0.8947368421052632,57.0,0.0,1.0,119.0,,0.5884,0.2862,,,,,,
2018-03-29,57.0,51.0,6.0,0.8947368421052632,57.0,0.0,1.0,119.0,,0.5884,0.2862,,,,,,
2018-03-30,57.0,51.0,6.0,0.8947368421052632,57.0,0.0,1.0,119.0,,0.5884,0.2862,,,,,,
2018-03-31,57.0,51.0,6.0,0.8947368421052632,57.0,0.0,1.0,119.0,,0.5884,0.2862,,,,,,
2018-04-01,57.0,51.0,6.0,0.8947368421052632,57.0,0.0,1.0,119.0,,0.5884,0.2862,,,,,,
2018-04-02,57.0,51.0,6.0,0.8947368421052632,57.0,0.0,1.0,119.0,,0.5884,0.2862,,,,,,
2018-04-03,57.0,51.0,6.0,0.8947368421052632,57.0,0.0,1.0,119.0,,0.5884,0.2862,,,,,,
2018-04-04,57.0,51.0,6.0,0.8947368421052632,57.0,0.0,1.0,119.0,,0.5884,0.2862,,,,,,
2018-04-05,57.0,51.0,6.0,0.8947368421052632,57.0,0.0,1.0,119.0,,0.5884,0.2862,,,,,,
2018-04-06,57.0,51.0,6.0,0.8947368421052632,57.0,0.0,1.0,119.0,,0.5884,0.2862,,,,,,
2018-04-07,57.0,51.0,6.0,0.8947368421052632,57.0,0.0,1.0,119.0,,0.5884,0.2862,,,,,,
2018-04-08,57.0,51.0,6.0,0.8947368421052632,57.0,0.0,1.0,119.0,,0.5884,0.2862,,,,,,
2018-04-09,57.0,51.0,6.0,0.8947368421052632,57.0,0.0,1.0,119.0,,0.5884,0.2862,,,,,,
2018-04-10,57.0,51.0,6.0,0.8947368421052632,57.0,0.0,1.0,119.0,,0.5884,0.2862,,,,,,
2018-04-11,57.0,51.0,6.0,0.8947368421052632,57.0,0.0,1.0,119.0,,0.5884,0.2862,,,,,,
2018-04-12,57.0,51.0,6.0,0.8947368421052632,57.0,0.0,1.0,119.0,,0.5884,0.2862,,,,,,
2018-04-13,57.0,51.0,6.0,0.8947368421052632,57.0,0.0,1.0,119.0,,0.5884,0.2862,,,,,,
2018-04-14,57.0,51.0,6.0,0.8947368421052632,57.0,0.0,1.0,119.0,,0.5884,0.2862,,,,,,
2018-04-15,57.0,51.0,6.0,0.8947368421052632,57.0,0.0,1.0,119.0,,0.5884,0.2862,,,,,,
2018-04-16,57.0,51.0,6.0,0.8947368421052632,57.0,0.0,1.0,119.0,,0.5884,0.2862,,,,,,
2018-04-17,57.0,51.0,6.0,0.8947368421052632,57.0,0.0,1.0,119.0,,0.5884,0.2862,,,,,,
2018-04-18,57.0,51.0,6.0,0.8947368421052632,57.0,0.0,1.0,119.0,,0.5884,0.2862,,,,,,
2018-04-19,57.0,51.0,6.0,0.8947368421052632,57.0,0.0,1.0,119.0,,0.5884,0.2862,,,,,,
2018-04-20,57.0,51.0,6.0,0.8947368421052632,57.0,0.0,1.0,119.0,,0.5884,0.2862,,,,,,
2018-04-21,57.0,51.0,6.0,0.8947368421052632,57.0,0.0,1.0,119.0,,0.5884,0.2862,,,,,,
2018-04-22,57.0,51.0,6.0,0.8947368421052632,57.0,0.0,1.0,119.0,,0.5884,0.2862,,,,,,
2018-04-23,57.0,51.0,6.0,0.8947368421052632,57.0,0.0,1.0,119.0,,0.5884,0.2862,,,,,,
2018-04-24,57.0,51.0,6.0,0.8947368421052632,57.0,0.0,1.0,119.0,,0.5884,0.2862,,,,,,
2018-04-25,57.0,51.0,6.0,0.8947368421052632,57.0,0.0,1.0,119.0,,0.5884,0.2862,,,,,,
2018-04-26,57.0,51.0,6.0,0.8947368421052632,57.0,0.0,1.0,119.0,,0.5884,0.2862,,,,,,
2018-04-27,57.0,51.0,6.0,0.8947368421052632,57.0,0.0,1.0,119.0,,0.5884,0.2862,,,,,,
2018-04-28,57.0,51.0,6.0,0.8947368421052632,57.0,0.0,1.0,119.0,,0.5884,0.2862,,,,,,
2018-04-29,57.0,51.0,6.0,0.8947368421052632,57.0,0.0,1.0,119.0,,0.5884,0.2862,,,,,,
2018-04-30,57.0,51.0,6.0,0.8947368421052632,57.0,0.0,1.0,119.0,,0.5884,0.2862,,,,,,
2018-05-01,57.0,51.0,6.0,0.8947368421052632,57.0,0.0,1.0,119.0,,0.5884,0.2862,,,,,,
2018-05-02,57.0,51.0,6.0,0.8947368421052632,57.0,0.0,1.0,119.0,,0.5884,0.2862,,,,,,
2018-05-03,57.0,51.0,6.0,0.8947368421052632,57.0,0.0,1.0,119.0,,0.5884,0.2862,,,,,,
2018-05-04,59.0,51.0,8.0,0.8644067796610171,57.0,2.0,0.9661016949152542,128.0,,0.5881000000000001,0.2797,,,,,,
2018-05-05,59.0,51.0,8.0,0.8644067796610171,57.0,2.0,0.9661016949152542,128.0,,0.5881000000000001,0.2797,,,,,,
2018-05-06,59.0,51.0,8.0,0.8644067796610171,57.0,2.0,0.9661016949152542,128.0,,0.5881000000000001,0.2797,,,,,,
2018-05-07,59.0,51.0,8.0,0.8644067796610171,57.0,2.0,0.9661016949152542,128.0,,0.5881000000000001,0.2797,,,,,,
2018-05-08,60.0,51.0,9.0,0.85,57.0,3.0,0.95,132.0,,0.5879,0.2774,,,,,,
2018-05-09,60.0,51.0,9.0,0.85,57.0,3.0,0.95,132.0,,0.5879,0.2774,,,,,,
2018-05-10,60.0,51.0,9.0,0.85,57.0,3.0,0.95,132.0,,0.5879,0.2774,,,,,,
2018-05-11,60.0,51.0,9.0,0.85,57.0,3.0,0.95,132.0,,0.5879,0.2774,,,,,,
2018-05-12,60.0,51.0,9.0,0.85,60.0,0.0,1.0,132.0,,0.5879,0.2774,,,,,,
2018-05-13,60.0,51.0,9.0,0.85,60.0,0.0,1.0,132.0,,0.5879,0.2774,,,,,,
2018-05-14,60.0,51.0,9.0,0.85,60.0,0.0,1.0,132.0,,0.5879,0.2774,,,,,,
2018-05-15,60.0,51.0,9.0,0.85,60.0,0.0,1.0,132.0,,0.5879,0.2774,,,,,,
2018-05-16,60.0,51.0,9.0,0.85,60.0,0.0,1.0,132.0,,0.5879,0.2774,,,,,,
2018-05-17,60.0,51.0,9.0,0.85,60.0,0.0,1.0,132.0,,0.5879,0.2774,,,,,,
2018-05-18,60.0,51.0,9.0,0.85,60.0,0.0,1.0,132.0,,0.5879,0.2774,,,,,,
2018-05-19,60.0,51.0,9.0,0.85,60.0,0.0,1.0,132.0,,0.5879,0.2774,,,,,,
2018-05-20,60.0,51.0,9.0,0.85,60.0,0.0,1.0,132.0,,0.5879,0.2774,,,,,,
2018-05-21,60.0,51.0,9.0,0.85,60.0,0.0,1.0,132.0,,0.5879,0.2774,,,,,,
2018-05-22,60.0,51.0,9.0,0.85,60.0,0.0,1.0,132.0,,0.5879,0.2774,,,,,,
2018-05-23,60.0,51.0,9.0,0.85,60.0,0.0,1.0,132.0,,0.5879,0.2774,,,,,,
2018-05-24,60.0,51.0,9.0,0.85,60.0,0.0,1.0,132.0,,0.5879,0.2774,,,,,,
2018-05-25,60.0,51.0,9.0,0.85,60.0,0.0,1.0,132.0,,0.5879,0.2774,,,,,,
2018-05-26,60.0,51.0,9.0,0.85,60.0,0.0,1.0,132.0,,0.5879,0.2774,,,,,,
2018-05-27,60.0,51.0,9.0,0.85,60.0,0.0,1.0,132.0,,0.5879,0.2774,,,,,,
2018-05-28,60.0,51.0,9.0,0.85,60.0,0.0,1.0,132.0,,0.5879,0.2774,,,,,,
2018-05-29,62.0,51.0,11.0,0.8225806451612904,62.0,0.0,1.0,137.0,,0.588,0.27690000000000003,,,,,,
2018-05-30,62.0,51.0,11.0,0.8225806451612904,62.0,0.0,1.0,137.0,,0.588,0.27690000000000003,,,,,,
2018-05-31,62.0,51.0,11.0,0.8225806451612904,62.0,0.0,1.0,137.0,,0.588,0.27690000000000003,,,,,,
2018-06-01,62.0,51.0,11.0,0.8225806451612904,62.0,0.0,1.0,137.0,,0.588,0.27690000000000003,,,,,,
2018-06-02,62.0,51.0,11.0,0.8225806451612904,62.0,0.0,1.0,137.0,,0.588,0.27690000000000003,,,,,,
2018-06-03,62.0,51.0,11.0,0.8225806451612904,62.0,0.0,1.0,137.0,,0.588,0.27690000000000003,,,,,,
2018-06-04,62.0,51.0,11.0,0.8225806451612904,62.0,0.0,1.0,137.0,,0.588,0.27690000000000003,,,,,,
2018-06-05,62.0,51.0,11.0,0.8225806451612904,62.0,0.0,1.0,137.0,,0.588,0.27690000000000003,,,,,,
2018-06-06,62.0,51.0,11.0,0.8225806451612904,62.0,0.0,1.0,137.0,,0.588,0.27690000000000003,,,,,,
2018-06-07,62.0,51.0,11.0,0.8225806451612904,62.0,0.0,1.0,137.0,,0.588,0.27690000000000003,,,,,,
2018-06-08,62.0,51.0,11.0,0.8225806451612904,62.0,0.0,1.0,137.0,,0.588,0.27690000000000003,,,,,,
2018-06-09,62.0,51.0,11.0,0.8225806451612904,62.0,0.0,1.0,137.0,,0.588,0.27690000000000003,,,,,,
2018-06-10,62.0,51.0,11.0,0.8225806451612904,62.0,0.0,1.0,137.0,,0.588,0.27690000000000003,,,,,,
2018-06-11,62.0,51.0,11.0,0.8225806451612904,62.0,0.0,1.0,137.0,,0.588,0.27690000000000003,,,,,,
2018-06-12,63.0,58.0,5.0,0.9206349206349206,63.0,0.0,1.0,140.0,,0.5879,0.276,,,,,,
2018-06-13,63.0,58.0,5.0,0.9206349206349206,63.0,0.0,1.0,140.0,,0.5879,0.276,,,,,,
2018-06-14,65.0,58.0,7.0,0.8923076923076924,65.0,0.0,1.0,145.0,,0.5879,0.2755,,,,,,
2018-06-15,67.0,58.0,9.0,0.8656716417910447,67.0,0.0,1.0,147.0,,0.5882000000000001,0.2771,,,,,,
2018-06-16,68.0,58.0,10.0,0.8529411764705882,68.0,0.0,1.0,149.0,,0.5882000000000001,0.2774,,,,,,
2018-06-17,68.0,58.0,10.0,0.8529411764705882,68.0,0.0,1.0,149.0,,0.5882000000000001,0.2774,,,,,,
2018-06-18,68.0,58.0,10.0,0.8529411764705882,68.0,0.0,1.0,149.0,,0.5882000000000001,0.2774,,,,,,